Flag for India Weather past 2 weeks in Dharamshala, Himachal Pradesh, India

Now
84 °F

Clear.


Feels Like: 84 °F
Forecast: 52 / 81 °F
Wind: 9 mph from West

Location: Amritsar Airport

Current Time: Oct 20, 2014 at 3:19:12 PM

Latest Report: Oct 20, 2014 at 2:30 PM


Visibility: 4 mi

Pressure: 29.92 "Hg

Humidity: 45%

Dew point: 61 °F

Location of DharamshalaLocation

Historic Weather in Dharamshala — Graph

°F

Dharamshala temperature yesterday

Maximum temperature yesterday: 86 °F (at 2:00 PM)
Minimum temperature yesterday: 61 °F (at 6:00 AM)
Average temperature yesterday: 73 °F

Past Weeks' High & Low Weather Summary

 TemperatureHumidityPressure
High93 °F (Oct 5, 2:30 PM)100% (Oct 5, 10:00 PM)30.09 "Hg (Oct 5, 10:00 PM)
Low57 °F (Oct 15, 7:00 AM)35% (Oct 12, 4:00 PM)29.77 "Hg (Oct 7, 3:30 PM)
Average74 °F77%29.91 "Hg
* Reported Oct 5 1:30 PM — Oct 20 2:00 PM, Dharamshala, Weather by CustomWeather, © 2014

Note: Actual official high and low records may vary slightly from our data, if they occured in-between our weather recording intervals... More about our weather records

Advertising

Dharamshala weather history for previous 24 hours

 ConditionsComfort  
Time TempWeatherWind HumidityBarometerVisibility
2:00 PM
Oct 20
84 °FClear.7 mph48%29.95 "Hg4 mi
1:30 PM84 °FClear.6 mph48%29.95 "Hg4 mi
1:00 PM84 °FClear.8 mph48%29.95 "Hg4 mi
12:30 PM82 °FClear.7 mph55%29.98 "Hg4 mi
12:00 PM81 °FClear.7 mph54%29.98 "Hg4 mi
11:30 AM81 °FClear.12 mph54%29.98 "Hg4 mi
11:00 AM79 °FHaze.9 mph58%30.01 "Hg3 mi
10:30 AM79 °FHaze.10 mph58%30.01 "Hg3 mi
8:30 AM68 °FFog.No wind94%29.98 "Hg1 mi
8:00 AM66 °FFog.No wind100%29.95 "Hg1 mi
7:30 AM64 °FFog.No wind100%29.95 "Hg1 mi
7:00 AM64 °FFog.No wind94%29.92 "Hg1 mi
6:30 AM64 °FFog.No wind94%29.92 "Hg1 mi
6:00 AM64 °FFog.No wind100%29.92 "Hg1 mi
5:30 AM64 °FFog.No wind94%29.92 "Hg1 mi
5:00 AM64 °FFog.No wind94%29.92 "Hg1 mi
4:00 AM66 °FFog.No wind88%29.89 "Hg1 mi
3:30 AM66 °FFog.No wind88%29.92 "Hg2 mi
3:00 AM68 °FFog.No wind83%29.92 "Hg2 mi
2:30 AM66 °FFog.No wind88%29.92 "Hg2 mi
1:30 AM66 °FFog.No wind94%29.95 "Hg2 mi
1:00 AM66 °FFog.No wind94%29.95 "Hg2 mi
12:30 AM68 °FFog.No wind88%29.95 "Hg2 mi
12:00 AM68 °FFog.No wind88%29.95 "Hg2 mi
11:30 PM
Oct 19
70 °FFog.No wind83%29.95 "Hg2 mi
11:00 PM70 °FFog.No wind83%29.95 "Hg2 mi
10:30 PM70 °FFog.No wind83%29.95 "Hg2 mi
9:30 PM72 °FFog.No wind78%29.95 "Hg2 mi
9:00 PM72 °FFog.No wind78%29.95 "Hg3 mi
8:30 PM72 °FFog.No wind78%29.95 "Hg3 mi
8:00 PM73 °FHaze.No wind69%29.92 "Hg3 mi
7:30 PM73 °FHaze.No wind74%29.92 "Hg3 mi
7:00 PM75 °FHaze.No wind69%29.92 "Hg3 mi
6:30 PM77 °FHaze.No wind61%29.92 "Hg3 mi
6:00 PM79 °FClear.No wind58%29.89 "Hg4 mi
5:30 PM81 °FClear.No wind54%29.89 "Hg4 mi
5:00 PM82 °FClear.1 mph48%29.89 "Hg4 mi
4:30 PM84 °FClear.5 mph43%29.89 "Hg4 mi
4:00 PM84 °FClear.6 mph43%29.89 "Hg4 mi
3:30 PM86 °FClear.7 mph38%29.92 "Hg4 mi
3:00 PM86 °FClear.6 mph38%29.92 "Hg4 mi
Weather by CustomWeather, © 2014

See weather overviewHow to use our weather pages